CAPE
0 0 0 0 0 0 0 0 0 153 753 669 363 373 269 193 564 572 359 194 69 24 19 19 21 27 52 41 0 0 0 0 0 0 0 0 0 0 0 0 0 0 0
0 0 0 0 0 0 0 0 0 0 173 691 582 681 496 378 218 331 334 359 220 95 55 46 34 25 53 83 12 0 0 0 0 0 0 0 0 0 0 0 0 0 0
0 0 0 0 0 0 0 0 0 0 0 161 449 578 529 533 409 256 139 401 342 222 147 89 99 46 36 80 63 0 0 0 0 0 0 0 0 0 0 0 0 0 0
0 0 0 0 0 0 0 0 0 0 0 0 3 249 216 379 462 558 509 180 311 306 271 225 239 223 63 21 31 0 0 0 0 0 0 0 0 0 0 0 0 0 0
0 0 0 0 0 0 0 0 0 0 0 0 0 11 99 239 512 587 588 465 145 95 198 127 251 150 58 24 4 0 0 0 0 0 0 0 0 0 0 0 0 0 0
0 0 0 0 0 0 0 0 0 0 0 0 0 0 1 131 368 581 603 654 325 17 36 42 60 104 48 6 9 0 0 0 0 0 0 0 0 0 0 0 0 0 0
0 0 0 0 0 0 0 0 0 0 0 0 0 0 0 2 54 117 137 75 17 1 3 2 5 5 20 4 3 1 0 0 0 0 0 0 0 0 0 0 0 0 0
0 0 0 0 0 0 0 0 0 0 0 0 0 0 0 0 7 5 3 7 8 5 4 3 3 2 1 2 3 5 4 0 0 0 0 0 0 0 0 0 0 0 0
0 0 0 0 0 0 0 0 0 0 0 0 0 0 0 0 0 2 5 6 2 6 5 4 1 0 0 0 0 1 2 0 0 0 0 0 0 0 0 0 0 0 0
0 0 0 0 0 0 0 0 0 0 0 0 0 0 0 0 0 0 0 2 1 0 0 0 0 0 0 0 0 1 0 0 0 0 0 0 0 0 0 0 0 0 0
0 0 0 0 0 0 0 0 0 0 0 0 0 0 0 0 0 0 1 0 0 0 0 0 0 0 0 0 0 0 0 0 0 0 0 0 0 0 0 0 0 0 0
0 0 0 0 0 0 0 0 0 0 0 3 2 1 2 2 2 1 1 0 0 0 0 0 0 0 0 0 0 0 0 0 0 0 0 0 0 0 0 0 0 0 2
0 0 0 0 0 0 0 0 0 0 0 1 0 0 0 0 0 0 0 0 0 0 0 0 0 0 0 0 0 0 0 0 0 0 0 0 0 0 1 1 0 0 2
0 0 0 0 0 0 0 0 0 0 0 0 0 0 0 0 0 0 0 0 0 0 0 0 0 0 0 0 0 0 0 0 0 0 0 0 0 0 1 3 1 0 1
0 0 0 0 0 0 0 0 0 0 0 0 0 0 0 0 0 0 0 0 0 0 0 0 0 0 0 0 0 0 0 0 1 1 2 1 1 1 0 1 1 1 1
0 0 0 0 0 0 0 0 0 0 0 0 0 0 0 0 0 0 0 0 0 0 0 0 0 0 1 1 1 0 0 0 1 1 0 0 3 4 3 2 1 2 8
0 0 0 0 0 0 0 0 0 0 0 0 0 0 0 0 0 0 0 0 2 3 5 6 3 6 9 14 10 2 0 0 0 0 0 0 0 0 0 0 0 1 0
0 0 0 0 0 0 0 0 0 0 0 0 0 0 0 0 2 4 5 6 3 1 1 1 1 1 10 12 5 0 0 0 0 0 0 0 0 0 0 0 3 4 3
0 0 0 0 0 0 0 0 0 0 0 0 0 0 1 3 4 4 1 1 1 0 0 0 1 1 11 6 0 0 0 0 0 0 0 0 0 0 2 5 4 0 0
0 0 0 0 0 0 0 0 1 2 2 1 2 3 4 2 1 2 0 0 0 2 4 2 8 12 4 3 0 0 0 0 0 0 0 0 0 2 2 0 0 0 0
0 0 0 0 0 0 0 0 3 5 3 5 4 4 5 3 2 3 3 4 1 4 4 4 0 0 1 1 0 0 0 0 0 0 0 0 0 0 0 0 0 0 1
0 0 0 0 0 0 1 3 4 6 2 2 7 4 5 2 3 3 2 1 0 0 0 0 0 0 0 0 0 0 0 0 0 0 0 0 0 0 0 0 0 1 1
0 0 0 0 0 2 3 7 8 8 7 5 5 3 1 0 0 0 0 0 0 0 0 0 0 0 0 0 0 0 0 0 0 0 0 0 0 0 0 0 0 0 0
0 0 0 0 0 3 4 5 6 5 3 1 0 2 0 0 0 0 0 0 0 0 0 0 0 0 0 0 0 0 0 0 0 0 0 0 0 0 0 0 0 0 0
0 0 0 0 2 4 2 2 2 0 1 1 0 0 0 0 0 0 0 0 0 0 0 0 0 0 0 0 0 0 0 0 0 0 0 0 0 0 0 0 0 0 0
0 0 0 0 3 2 1 1 1 0 0 0 0 0 0 0 0 0 0 0 0 0 0 0 0 0 0 0 0 0 0 0 0 0 0 0 0 0 0 0 0 1 1
CIN
-0 -0 -0 -0 -0 -0 -0 -0 -0 -120 -36 -87 -130 -130 -170 -174 -65 -70 -101 -129 -150 -156 -166 -142 -132 -127 -135 -146 -0 -0 -0 -0 -0 -0 -0 -0 -0 -0 -0 -0 -0 -0 -0
-0 -0 -0 -0 -0 -0 -0 -0 -0 -0 -84 -58 -96 -74 -104 -126 -156 -117 -125 -105 -121 -128 -144 -152 -154 -153 -133 -103 -90 -0 -0 -0 -0 -0 -0 -0 -0 -0 -0 -0 -0 -0 -0
-0 -0 -0 -0 -0 -0 -0 -0 -0 -0 -0 -83 -58 -46 -45 -69 -103 -158 -205 -157 -132 -133 -144 -165 -129 -132 -142 -111 -124 -0 -0 -0 -0 -0 -0 -0 -0 -0 -0 -0 -0 -0 -0
-0 -0 -0 -0 -0 -0 -0 -0 -0 -0 -0 -0 -17 -36 -66 -72 -100 -103 -126 -197 -167 -150 -137 -118 -110 -102 -129 -150 -169 -0 -0 -0 -0 -0 -0 -0 -0 -0 -0 -0 -0 -0 -0
-0 -0 -0 -0 -0 -0 -0 -0 -0 -0 -0 -0 -0 -38 -40 -54 -58 -44 -59 -92 -196 -199 -154 -157 -104 -123 -137 -161 -158 -0 -0 -0 -0 -0 -0 -0 -0 -0 -0 -0 -0 -0 -0
-0 -0 -0 -0 -0 -0 -0 -0 -0 -0 -0 -0 -0 -0 -0 -31 -19 -21 -27 -39 -100 -138 -175 -185 -160 -159 -164 -76 -205 -0 -0 -0 -0 -0 -0 -0 -0 -0 -0 -0 -0 -0 -0
-0 -0 -0 -0 -0 -0 -0 -0 -0 -0 -0 -0 -0 -0 -0 -0 -34 -37 -54 -22 -17 -0 -0 -0 -73 -0 -164 -90 -91 -0 -0 -0 -0 -0 -0 -0 -0 -0 -0 -0 -0 -0 -0
-0 -0 -0 -0 -0 -0 -0 -0 -0 -0 -0 -0 -0 -0 -0 -0 -0 -0 -0 -0 -8 -0 -0 -0 -0 -0 -0 -0 -0 -0 -0 -0 -0 -0 -0 -0 -0 -0 -0 -0 -0 -0 -0
-0 -0 -0 -0 -0 -0 -0 -0 -0 -0 -0 -0 -0 -0 -0 -0 -0 -0 -2 -5 -0 -0 -0 -0 -0 -0 -0 -0 -0 -0 -0 -0 -0 -0 -0 -0 -0 -0 -0 -0 -0 -0 -0
-0 -0 -0 -0 -0 -0 -0 -0 -0 -0 -0 -0 -0 -0 -0 -0 -0 -0 -0 -1 -0 -0 -0 -0 -0 -0 -0 -0 -0 -0 -0 -0 -0 -0 -0 -0 -0 -0 -0 -0 -0 -0 -0
-0 -0 -0 -0 -0 -0 -0 -0 -0 -0 -0 -0 -0 -0 -0 -0 -0 -0 -0 -0 -0 -0 -0 -0 -0 -0 -0 -0 -0 -0 -0 -0 -0 -0 -0 -0 -0 -0 -0 -0 -0 -0 -0
-0 -0 -0 -0 -0 -0 -0 -0 -0 -0 -0 -0 -0 -0 -0 -0 -0 -0 -0 -0 -0 -0 -0 -0 -0 -0 -0 -0 -0 -0 -0 -0 -0 -0 -0 -0 -0 -0 -0 -0 -0 -0 -0
-0 -0 -0 -0 -0 -0 -0 -0 -0 -0 -0 -0 -0 -0 -0 -0 -0 -0 -0 -0 -0 -0 -0 -0 -0 -0 -0 -0 -0 -0 -0 -0 -0 -0 -0 -0 -0 -0 -0 -0 -0 -0 -0
-0 -0 -0 -0 -0 -0 -0 -0 -0 -0 -0 -0 -0 -0 -0 -0 -0 -0 -0 -0 -0 -0 -0 -0 -0 -0 -0 -0 -0 -0 -0 -0 -0 -0 -0 -0 -0 -0 -0 -0 -0 -0 -0
-0 -0 -0 -0 -0 -0 -0 -0 -0 -0 -0 -0 -0 -0 -0 -0 -0 -0 -0 -0 -0 -0 -0 -0 -0 -0 -0 -0 -0 -0 -0 -0 -0 -0 -0 -0 -0 -0 -0 -0 -0 -0 -0
-0 -0 -0 -0 -0 -0 -0 -0 -0 -0 -0 -0 -0 -0 -0 -0 -0 -0 -0 -0 -0 -0 -0 -0 -0 -0 -0 -0 -0 -0 -0 -0 -0 -0 -0 -0 -0 -0 -0 -0 -0 -0 -0
-0 -0 -0 -0 -0 -0 -0 -0 -0 -0 -0 -0 -0 -0 -0 -0 -0 -0 -0 -0 -0 -0 -0 -0 -0 -0 -0 -0 -0 -0 -0 -0 -0 -0 -0 -0 -0 -0 -0 -0 -0 -0 -0
-0 -0 -0 -0 -0 -0 -0 -0 -0 -0 -0 -0 -0 -0 -0 -0 -0 -0 -0 -0 -0 -0 -0 -0 -0 -0 -0 -0 -0 -0 -0 -0 -0 -0 -0 -0 -0 -0 -0 -0 -0 -0 -0
-0 -0 -0 -0 -0 -0 -0 -0 -0 -0 -0 -0 -0 -0 -0 -0 -0 -0 -0 -0 -0 -0 -0 -0 -0 -0 -0 -0 -0 -0 -0 -0 -0 -0 -0 -0 -0 -0 -0 -0 -0 -0 -0
-0 -0 -0 -0 -0 -0 -0 -0 -0 -0 -0 -0 -0 -0 -0 -0 -0 -0 -0 -0 -0 -0 -0 -0 -0 -0 -0 -0 -0 -0 -0 -0 -0 -0 -0 -0 -0 -0 -0 -0 -0 -0 -0
-0 -0 -0 -0 -0 -0 -0 -0 -0 -0 -0 -0 -0 -0 -0 -0 -0 -0 -0 -0 -0 -0 -0 -0 -0 -0 -0 -0 -0 -0 -0 -0 -0 -0 -0 -0 -0 -0 -0 -0 -0 -0 -0
-0 -0 -0 -0 -0 -0 -0 -0 -0 -0 -0 -0 -0 -0 -0 -0 -0 -0 -0 -0 -0 -0 -0 -0 -0 -0 -0 -0 -0 -0 -0 -0 -0 -0 -0 -0 -0 -0 -0 -0 -0 -0 -0
-0 -0 -0 -0 -0 -0 -0 -0 -0 -0 -0 -0 -0 -0 -0 -0 -0 -0 -0 -0 -0 -0 -0 -0 -0 -0 -0 -0 -0 -0 -0 -0 -0 -0 -0 -0 -0 -0 -0 -0 -0 -0 -0
-0 -0 -0 -0 -0 -0 -0 -0 -0 -0 -0 -0 -0 -0 -0 -0 -0 -0 -0 -0 -0 -0 -0 -0 -0 -0 -0 -0 -0 -0 -0 -0 -0 -0 -0 -0 -0 -0 -0 -0 -0 -0 -0
-0 -0 -0 -0 -0 -0 -0 -0 -0 -0 -0 -0 -0 -0 -0 -0 -0 -0 -0 -0 -0 -0 -0 -0 -0 -0 -0 -0 -0 -0 -0 -0 -0 -0 -0 -0 -0 -0 -0 -0 -0 -0 -0
-0 -0 -0 -0 -0 -0 -0 -0 -0 -0 -0 -0 -0 -0 -0 -0 -0 -0 -0 -0 -0 -0 -0 -0 -0 -0 -0 -0 -0 -0 -0 -0 -0 -0 -0 -0 -0 -0 -0 -0 -0 -0 -0
Wind_Speed
13 11 10 9 11 11 12 13 13 14 11 8 8 8 9 8 9 10 13 14 14 16 15 12 13 13 12 13 12 11 11 7 7 5 5 5 6 7 7 7 8 9 8
11 10 10 10 10 10 10 11 12 14 13 10 10 9 8 8 8 7 10 14 16 16 16 16 14 16 12 15 14 13 9 8 9 7 5 5 6 8 8 7 8 9 8
13 12 11 10 8 10 11 11 12 13 14 15 11 9 7 6 6 8 10 15 17 17 18 17 15 14 13 12 14 14 15 10 9 11 5 4 7 4 5 10 8 10 6
5 5 6 6 7 8 8 9 10 11 12 15 14 16 12 12 11 11 10 11 14 17 18 16 15 15 12 15 14 13 14 11 10 7 9 4 3 4 4 4 7 7 7
6 8 7 6 5 4 1 5 7 9 10 11 14 12 15 11 10 10 13 13 11 13 14 16 16 15 12 14 15 15 17 13 11 10 5 9 5 4 4 3 3 4 6
7 7 6 5 6 6 6 6 2 3 5 8 11 15 16 15 11 12 11 9 8 7 12 13 15 14 15 15 14 15 16 13 12 11 9 6 5 8 6 6 3 4 3
6 6 6 6 6 7 7 5 6 4 2 2 7 12 15 16 16 15 10 11 7 6 10 13 11 10 14 14 12 13 13 13 11 13 8 4 2 2 1 1 3 2 1
5 5 5 5 6 6 6 6 7 6 6 6 5 5 8 10 10 12 12 10 9 10 12 10 10 11 11 11 11 9 9 11 9 12 7 5 4 4 2 2 3 1 0
4 3 4 5 6 6 6 6 7 7 7 8 8 8 7 8 10 13 9 7 9 7 9 8 8 8 7 8 7 5 9 7 7 7 8 8 6 6 5 2 3 2 3
2 3 4 5 6 6 7 7 7 8 8 8 7 7 8 8 8 8 10 8 4 3 4 6 7 7 8 8 9 6 7 7 5 5 7 6 6 8 6 5 5 5 2
1 2 3 5 6 7 8 8 8 9 9 9 8 7 7 7 6 5 5 6 3 4 4 5 6 7 8 8 8 8 10 11 11 10 11 10 6 6 7 6 4 5 1
2 1 2 3 5 6 7 7 8 8 8 8 8 7 5 4 3 2 1 2 4 4 5 5 6 7 7 8 10 11 11 13 13 12 12 11 7 4 6 4 4 2 1
4 4 2 2 4 5 6 7 8 9 8 7 6 6 6 4 4 4 4 4 5 6 7 7 8 9 9 10 9 12 13 13 12 11 10 9 9 5 4 4 3 1 3
7 6 5 3 1 3 4 6 8 8 7 7 7 7 7 7 7 8 9 9 9 10 10 11 11 10 10 10 10 11 12 12 11 10 10 8 6 7 4 3 3 4 5
7 6 6 4 2 3 5 6 7 8 8 8 9 9 9 9 10 11 11 11 11 11 12 12 12 12 10 8 10 10 10 10 12 9 8 6 7 7 5 3 4 5 4
6 5 5 4 4 5 6 6 6 7 7 8 9 9 11 10 10 10 11 11 12 12 12 12 14 13 10 19 17 11 9 7 9 7 6 4 6 5 3 4 6 6 8
8 7 6 5 5 5 5 6 6 7 8 8 9 10 10 10 9 10 11 12 13 12 13 13 12 12 11 17 14 15 6 7 4 6 6 5 4 1 2 5 8 9 9
8 8 7 6 5 5 6 7 7 9 7 8 10 9 9 10 10 11 11 11 10 12 11 11 11 10 10 18 14 12 8 6 6 6 5 3 1 2 5 5 6 6 7
6 6 7 6 5 6 6 7 7 7 7 7 8 8 8 10 10 11 9 9 10 10 9 10 11 10 9 12 9 7 7 6 5 4 2 1 2 3 7 6 4 8 8
7 8 8 7 6 5 6 7 7 7 7 7 8 8 7 9 10 10 9 8 9 9 8 9 8 11 9 9 9 6 3 3 3 2 2 1 5 5 7 7 7 7 8
8 8 7 7 6 5 5 7 7 8 8 9 9 8 8 9 10 10 8 9 10 10 10 10 8 6 5 7 6 4 3 2 2 2 2 2 6 8 8 7 5 7 9
8 8 7 6 6 6 7 8 6 5 8 10 8 9 9 8 8 11 9 9 9 9 8 8 6 4 5 6 6 5 6 3 2 2 2 3 8 8 7 6 7 9 8
8 8 8 8 7 7 7 8 7 7 8 9 9 10 10 9 8 9 9 7 6 6 6 4 4 4 2 3 4 4 5 3 2 3 4 6 8 7 5 5 7 7 4
8 8 9 8 9 8 8 8 10 11 12 12 11 10 9 8 7 5 5 5 4 4 4 3 3 3 2 2 1 1 2 1 3 1 3 5 5 5 5 5 3 3 4
8 9 9 9 10 9 10 9 10 11 11 10 9 8 7 7 7 5 4 4 4 2 3 3 2 2 2 1 3 4 4 4 5 5 3 3 4 4 3 3 3 4 4
10 9 10 10 11 11 11 11 11 10 10 9 7 6 6 6 5 6 7 10 9 9 9 5 2 2 1 1 2 4 4 5 5 3 3 4 4 4 4 5 5 4 5
Wind_Direction
247 251 254 243 240 236 230 223 222 218 211 196 199 207 210 205 228 221 217 216 215 210 209 214 210 207 208 206 201 199 194 194 189 180 203 213 215 212 210 206 201 194 198
241 250 251 249 240 237 226 231 226 227 215 203 212 215 211 216 224 222 229 219 221 216 212 212 211 209 210 210 202 195 193 197 192 202 206 212 200 221 212 205 211 203 197
256 258 253 237 240 236 233 226 226 229 228 220 218 215 230 222 196 210 213 223 221 224 219 217 214 213 209 211 206 200 197 190 197 209 212 189 232 157 184 216 208 207 200
223 245 254 246 240 245 254 252 243 236 231 230 228 219 217 222 224 225 222 229 224 224 228 221 217 217 208 213 206 201 204 198 195 197 232 258 343 216 183 210 226 213 203
103 99 92 84 67 48 328 262 248 244 242 238 233 229 227 230 233 230 234 223 222 227 223 224 217 215 214 216 208 201 205 206 199 203 177 217 221 236 259 216 178 243 220
105 95 90 87 70 57 51 48 78 156 220 229 235 236 237 231 231 235 235 230 228 217 231 221 224 216 215 215 213 210 208 208 216 207 196 179 179 206 212 230 193 222 165
112 96 82 74 61 46 28 17 12 37 28 240 234 237 240 240 239 238 239 243 229 217 223 223 216 223 225 221 215 212 214 208 208 204 201 177 124 68 109 168 155 160 111
106 86 71 61 54 41 26 4 351 337 330 311 279 257 246 244 238 242 239 242 238 235 235 223 219 220 222 222 216 209 210 206 206 200 176 118 101 85 79 109 113 110 126
102 76 68 47 33 24 16 356 339 327 316 308 293 278 262 246 247 241 239 253 250 248 240 218 205 207 200 201 201 196 200 200 188 184 137 123 119 100 98 86 101 148 137
98 65 48 27 17 8 359 354 347 334 321 308 292 285 280 271 267 264 252 247 248 196 212 197 186 181 178 172 166 170 151 132 111 99 94 98 114 110 103 91 93 54 52
35 41 37 22 6 0 358 348 346 340 340 334 315 294 283 279 280 275 271 249 205 184 183 179 172 170 166 153 131 126 126 115 108 99 97 82 69 78 93 89 77 103 86
262 159 75 17 6 357 349 349 349 348 357 349 347 352 346 335 311 281 210 157 138 135 142 144 141 135 133 135 131 129 126 123 118 119 112 123 112 107 94 93 99 95 194
201 178 162 22 356 348 354 5 7 1 5 7 11 19 22 32 56 76 86 99 110 108 106 111 116 121 119 117 115 116 115 115 119 121 122 128 124 127 107 100 105 131 239
183 183 168 163 358 1 18 27 25 18 18 29 39 47 47 60 68 76 77 81 83 91 92 94 96 94 91 94 104 109 112 110 103 105 110 110 112 113 119 122 191 192 219
185 177 168 147 110 84 66 50 41 32 34 52 51 49 54 61 69 73 76 78 77 77 84 88 83 89 84 88 87 84 92 99 103 94 100 102 113 125 168 178 207 225 245
165 159 143 121 84 71 74 60 55 53 54 64 62 58 60 61 65 72 76 78 80 84 85 83 87 79 83 90 95 87 86 87 100 109 102 113 128 156 199 245 266 255 251
161 151 140 140 110 90 81 75 63 68 62 67 67 66 70 65 67 85 89 90 91 89 84 79 78 83 93 100 103 100 96 76 83 111 127 128 110 100 263 261 261 260 270
150 151 149 133 109 108 95 98 93 79 78 74 76 75 75 77 77 76 79 82 84 82 82 81 76 76 80 85 88 88 86 113 95 94 96 100 151 233 271 277 277 276 265
116 123 125 120 118 103 100 103 96 94 88 82 86 94 98 93 90 85 80 82 87 83 82 82 81 77 82 94 104 112 100 97 87 74 80 295 322 320 286 297 278 286 292
126 132 129 124 116 114 112 110 105 106 103 106 104 99 100 102 101 95 89 89 89 90 93 90 90 105 109 105 84 86 126 143 120 108 87 35 335 316 330 315 303 297 304
131 130 132 118 116 116 125 119 120 112 121 115 109 97 95 92 92 92 93 94 99 102 97 97 96 106 121 111 113 80 67 55 31 10 358 357 332 331 322 315 300 287 304
141 136 130 123 121 124 130 126 113 117 118 115 102 100 103 104 107 108 109 109 111 108 108 107 106 92 85 82 83 67 45 32 348 351 337 328 328 325 323 316 313 311 310
152 150 146 140 132 132 139 133 129 124 115 109 110 109 107 107 114 118 117 116 116 121 122 118 116 112 110 96 67 51 29 33 339 344 359 328 325 321 303 318 323 311 301
162 160 152 144 134 136 135 133 138 136 129 117 115 112 110 113 109 102 104 118 124 119 121 127 131 134 148 135 47 357 332 8 307 205 314 331 314 302 308 301 296 302 305
166 170 162 153 140 138 140 147 146 138 126 123 125 119 116 112 107 88 81 98 79 71 138 129 136 149 143 53 6 352 341 348 348 322 314 322 328 325 323 314 305 302 299
172 170 164 152 149 151 150 152 150 145 137 134 132 129 124 119 119 121 105 74 91 99 98 92 80 121 34 10 11 349 341 332 346 297 320 324 326 319 322 319 321 318 309